TimeEST,TemperatureF,Dew PointF,Humidity,Sea Level PressureIn,VisibilityMPH,Wind Direction,Wind SpeedMPH,Gust SpeedMPH,PrecipitationIn,Events,Conditions,WindDirDegrees,DateUTC
12:00 AM,41.0,37.4,87,30.17,8.0,Calm,Calm,-,N/A,,Mostly Cloudy,0,2012-11-21 05:00:00
1:00 AM,40,37,87,30.17,7,Calm,Calm,,,,Scattered Clouds,,2012-11-21 06:00:00
1:00 AM,41.0,37.4,87,30.17,7.0,Calm,Calm,-,N/A,,Partly Cloudy,0,2012-11-21 06:00:00
2:00 AM,39.2,37.4,93,30.17,6.0,West,2.3,-,N/A,,Partly Cloudy,280,2012-11-21 07:00:00
3:00 AM,37.4,35.6,93,30.19,5.0,Calm,Calm,-,N/A,,Clear,0,2012-11-21 08:00:00
4:00 AM,37.4,35.6,93,30.19,5.0,Calm,Calm,-,N/A,,Mostly Cloudy,0,2012-11-21 09:00:00
5:00 AM,37.4,35.6,93,30.20,5.0,Calm,Calm,-,N/A,,Partly Cloudy,0,2012-11-21 10:00:00
6:00 AM,37.4,35.6,93,30.21,5.0,Calm,Calm,-,N/A,Fog,Partly Cloudy,0,2012-11-21 11:00:00
7:00 AM,36,36,100,30.22,4,SSE,3.5,,,,Mist,160,2012-11-21 12:00:00
7:00 AM,37.4,35.6,93,30.22,4.0,SSE,3.5,-,N/A,,Partly Cloudy,160,2012-11-21 12:00:00
7:17 AM,-9999,-9999,N/A,-9999,1.0,ESE,3.5,-,N/A,,Scattered Clouds,120,2012-11-21 12:17:00
7:24 AM,-9999,-9999,N/A,-9999,0.8,East,2.3,-,N/A,,Scattered Clouds,100,2012-11-21 12:24:00
8:00 AM,33.8,32.0,93,30.24,1.0,Calm,Calm,-,N/A,,Clear,0,2012-11-21 13:00:00
8:23 AM,-9999,-9999,N/A,-9999,3.0,Calm,Calm,-,N/A,,Clear,0,2012-11-21 13:23:00
9:00 AM,41.0,41.0,100,30.25,2.0,Calm,Calm,-,N/A,,Clear,0,2012-11-21 14:00:00
9:47 AM,-9999,-9999,N/A,-9999,5.0,Calm,Calm,-,N/A,,Partly Cloudy,0,2012-11-21 14:47:00
10:00 AM,46.4,42.8,87,30.25,5.0,Calm,Calm,-,N/A,,Partly Cloudy,0,2012-11-21 15:00:00
11:00 AM,51.8,42.8,71,30.25,6.0,SSE,2.3,-,N/A,,Haze,150,2012-11-21 16:00:00
12:00 PM,53.6,42.8,67,30.24,8.0,SSW,4.6,-,N/A,,Mostly Cloudy,210,2012-11-21 17:00:00
1:00 PM,56,44,53,30.23,10,SSW,5.8,,,,Clear,210,2012-11-21 18:00:00
1:00 PM,55.4,42.8,63,30.23,10.0,SSW,5.8,-,N/A,,Scattered Clouds,210,2012-11-21 18:00:00
2:00 PM,57.2,41.0,55,30.21,15.0,SSW,8.1,-,N/A,,Scattered Clouds,200,2012-11-21 19:00:00
3:00 PM,57.2,41.0,55,30.20,15.0,SSW,9.2,-,N/A,,Mostly Cloudy,200,2012-11-21 20:00:00
4:00 PM,55.4,39.2,54,30.20,10.0,South,8.1,-,N/A,,Mostly Cloudy,190,2012-11-21 21:00:00
5:00 PM,51.8,39.2,62,30.19,8.0,South,6.9,-,N/A,,Mostly Cloudy,180,2012-11-21 22:00:00
6:00 PM,46.4,39.2,76,30.20,12.0,South,3.5,-,N/A,,Scattered Clouds,180,2012-11-21 23:00:00
7:00 PM,44,38,73,30.20,12,South,6.9,,,,Clear,190,2012-11-22 00:00:00
7:00 PM,44.6,37.4,76,30.20,12.0,South,6.9,-,N/A,,Scattered Clouds,190,2012-11-22 00:00:00
8:00 PM,44.6,39.2,81,30.20,12.0,South,4.6,-,N/A,,Scattered Clouds,190,2012-11-22 01:00:00
9:00 PM,42.8,39.2,87,30.20,10.0,South,5.8,-,N/A,,Mostly Cloudy,180,2012-11-22 02:00:00
10:00 PM,42.8,39.2,87,30.19,8.0,South,6.9,-,N/A,,Mostly Cloudy,180,2012-11-22 03:00:00
11:00 PM,42.8,39.2,87,30.19,7.0,SW,2.3,-,N/A,,Mostly Cloudy,220,2012-11-22 04:00:00